| time (UTC) | temp F | wind direction | speed knots | gust knots | rain 1hr in | rain 24hr in | rain mn in | humidity % | barometer mb |
| 20260508142848 | 56 | 194 | 1.7 | 8.7 | 0.00 | 0.00 | 0.00 | 36 | 1020.9 |
| 20260508142346 | 56 | 197 | 1.7 | 11.3 | 0.00 | 0.00 | 0.00 | 36 | 1020.9 |
| 20260508141829 | 56 | 213 | 0.9 | 11.3 | 0.00 | 0.00 | 0.00 | 37 | 1021.0 |
| 20260508141332 | 56 | 232 | 0.0 | 5.2 | 0.00 | 0.00 | 0.00 | 38 | 1020.9 |
| 20260508140804 | 55 | 182 | 0.0 | 0.9 | 0.00 | 0.00 | 0.00 | 40 | 1021.0 |
| 20260508140303 | 55 | 235 | 0.0 | 3.5 | 0.00 | 0.00 | 0.00 | 39 | 1021.0 |
| 20260508135737 | 54 | 236 | 0.0 | 3.5 | 0.00 | 0.00 | 0.00 | 40 | 1021.1 |
| 20260508135443 | 54 | 211 | 0.0 | 8.7 | 0.00 | 0.00 | 0.00 | 40 | 1021.1 |
| 20260508134940 | 53 | 227 | 1.7 | 8.7 | 0.00 | 0.00 | 0.00 | 40 | 1021.1 |
| 20260508134131 | 53 | 215 | 1.7 | 9.6 | 0.00 | 0.00 | 0.00 | 39 | 1021.1 |
| 20260508133602 | 53 | 241 | 0.9 | 7.8 | 0.00 | 0.00 | 0.00 | 40 | 1021.2 |
| 20260508133039 | 52 | 242 | 0.9 | 9.6 | 0.00 | 0.00 | 0.00 | 40 | 1021.2 |
| 20260508132512 | 52 | 194 | 0.9 | 9.6 | 0.00 | 0.00 | 0.00 | 39 | 1021.2 |
| 20260508132015 | 52 | 208 | 0.9 | 6.1 | 0.00 | 0.00 | 0.00 | 40 | 1021.2 |
| 20260508131516 | 52 | 205 | 0.9 | 8.7 | 0.00 | 0.00 | 0.00 | 39 | 1021.3 |
| 20260508130959 | 52 | 185 | 0.9 | 8.7 | 0.00 | 0.00 | 0.00 | 40 | 1021.2 |
| 20260508130501 | 52 | 196 | 1.7 | 8.7 | 0.00 | 0.00 | 0.00 | 40 | 1021.3 |
| 20260508130207 | 51 | 205 | 0.9 | 8.7 | 0.00 | 0.00 | 0.00 | 41 | 1021.3 |
| 20260508130052 | 51 | 205 | 0.9 | 8.7 | 0.00 | 0.00 | 0.00 | 42 | 1021.3 |
| 20260508124936 | 50 | 196 | 0.9 | 8.7 | 0.00 | 0.00 | 0.00 | 42 | 1021.3 |
| 20260508124920 | 49 | 225 | 1.7 | 10.4 | 0.00 | 0.00 | 0.00 | 42 | 1021.3 |
| 20260508123918 | 49 | 225 | 1.7 | 10.4 | 0.00 | 0.00 | 0.00 | 43 | 1021.3 |
| 20260508123423 | 49 | 205 | 0.9 | 9.6 | 0.00 | 0.00 | 0.00 | 42 | 1021.3 |
| 20260508122917 | 48 | 196 | 0.9 | 8.7 | 0.00 | 0.00 | 0.00 | 44 | 1021.3 |
| 20260508122417 | 48 | 196 | 0.9 | 8.7 | 0.00 | 0.00 | 0.00 | 43 | 1021.3 |
| 20260508122412 | 47 | 213 | 0.9 | 7.0 | 0.00 | 0.00 | 0.00 | 44 | 1021.3 |
| 20260508121410 | 47 | 216 | 0.0 | 7.0 | 0.00 | 0.00 | 0.00 | 45 | 1021.2 |
| 20260508120904 | 47 | 209 | 0.0 | 7.0 | 0.00 | 0.00 | 0.00 | 45 | 1021.2 |
| 20260508120405 | 47 | 190 | 0.0 | 4.3 | 0.00 | 0.00 | 0.00 | 45 | 1021.2 |
| 20260508115858 | 46 | 209 | 0.0 | 4.3 | 0.00 | 0.00 | 0.00 | 45 | 1021.1 |
| 20260508115629 | 46 | 225 | 0.9 | 7.8 | 0.00 | 0.00 | 0.00 | 45 | 1021.1 |
| 20260508114841 | 46 | 217 | 1.7 | 7.0 | 0.00 | 0.00 | 0.00 | 45 | 1021.2 |
| 20260508114613 | 46 | 206 | 0.9 | 7.8 | 0.00 | 0.00 | 0.00 | 45 | 1021.1 |
| 20260508113836 | 46 | 195 | 0.0 | 5.2 | 0.00 | 0.00 | 0.00 | 46 | 1021.1 |
| 20260508113339 | 45 | 212 | 0.0 | 6.1 | 0.00 | 0.00 | 0.00 | 46 | 1021.2 |
| 20260508113048 | 45 | 221 | 0.0 | 6.1 | 0.00 | 0.00 | 0.00 | 46 | 1021.2 |
| 20260508112316 | 45 | 217 | 0.0 | 3.5 | 0.00 | 0.00 | 0.00 | 46 | 1021.2 |
| 20260508111756 | 45 | 200 | 0.0 | 4.3 | 0.00 | 0.00 | 0.00 | 46 | 1021.2 |
| 20260508111500 | 45 | 203 | 0.9 | 7.0 | 0.00 | 0.00 | 0.00 | 46 | 1021.2 |
| 20260508110939 | 45 | 189 | 0.0 | 7.0 | 0.00 | 0.00 | 0.00 | 47 | 1021.2 |
| 20260508110439 | 45 | 200 | 0.0 | 3.5 | 0.00 | 0.00 | 0.00 | 47 | 1021.2 |
| 20260508105936 | 45 | 238 | 0.0 | 7.0 | 0.00 | 0.00 | 0.00 | 47 | 1021.2 |
| 20260508105434 | 45 | 209 | 0.0 | 5.2 | 0.00 | 0.00 | 0.00 | 47 | 1021.2 |
| 20260508104934 | 44 | 225 | 0.0 | 4.3 | 0.00 | 0.00 | 0.00 | 47 | 1021.2 |
| 20260508104142 | 44 | 221 | 0.0 | 4.3 | 0.00 | 0.00 | 0.00 | 48 | 1021.2 |
| 20260508103643 | 44 | 194 | 0.0 | 2.6 | 0.00 | 0.00 | 0.00 | 48 | 1021.2 |
| 20260508103416 | 44 | 209 | 0.0 | 6.1 | 0.00 | 0.00 | 0.00 | 48 | 1021.2 |
| 20260508102622 | 44 | 192 | 0.0 | 6.1 | 0.00 | 0.00 | 0.00 | 48 | 1021.3 |
| 20260508102121 | 44 | 193 | 0.0 | 3.5 | 0.00 | 0.00 | 0.00 | 48 | 1021.3 |
| 20260508101604 | 44 | 208 | 0.0 | 2.6 | 0.00 | 0.00 | 0.00 | 48 | 1021.3 |
| 20260508101104 | 44 | 196 | 0.0 | 1.7 | 0.00 | 0.00 | 0.00 | 48 | 1021.4 |
| 20260508100606 | 44 | 212 | 0.0 | 3.5 | 0.00 | 0.00 | 0.00 | 48 | 1021.3 |
| 20260508100105 | 44 | 225 | 0.0 | 3.5 | 0.00 | 0.00 | 0.00 | 48 | 1021.4 |
| 20260508095540 | 44 | 182 | 0.0 | 2.6 | 0.00 | 0.00 | 0.00 | 47 | 1021.3 |
| 20260508095035 | 45 | 211 | 0.0 | 0.9 | 0.00 | 0.00 | 0.00 | 47 | 1021.3 |
| 20260508094537 | 45 | 202 | 0.0 | 0.9 | 0.00 | 0.00 | 0.00 | 46 | 1021.4 |
| 20260508094026 | 45 | 206 | 0.0 | 3.5 | 0.00 | 0.00 | 0.00 | 46 | 1021.4 |
| 20260508093507 | 45 | 207 | 0.0 | 3.5 | 0.00 | 0.00 | 0.00 | 45 | 1021.4 |
| 20260508093003 | 45 | 209 | 0.0 | 0.9 | 0.00 | 0.00 | 0.00 | 45 | 1021.4 |
| 20260508092442 | 45 | 191 | 0.0 | 6.1 | 0.00 | 0.00 | 0.00 | 45 | 1021.4 |
| 20260508091911 | 46 | 212 | 0.0 | 6.1 | 0.00 | 0.00 | 0.00 | 44 | 1021.4 |
| 20260508091639 | 46 | 204 | 0.0 | 7.0 | 0.00 | 0.00 | 0.00 | 44 | 1021.5 |
| 20260508091137 | 46 | 211 | 0.0 | 7.0 | 0.00 | 0.00 | 0.00 | 44 | 1021.4 |
| 20260508090410 | 46 | 205 | 0.9 | 7.8 | 0.00 | 0.00 | 0.00 | 44 | 1021.4 |
| 20260508085833 | 46 | 203 | 0.9 | 7.8 | 0.00 | 0.00 | 0.00 | 44 | 1021.5 |
| 20260508085301 | 45 | 207 | 0.0 | 4.3 | 0.00 | 0.00 | 0.00 | 45 | 1021.5 |
| 20260508084731 | 46 | 204 | 0.0 | 2.6 | 0.00 | 0.00 | 0.00 | 44 | 1021.5 |
| 20260508084437 | 46 | 184 | 0.0 | 4.3 | 0.00 | 0.00 | 0.00 | 44 | 1021.5 |
| 20260508083710 | 46 | 203 | 0.0 | 4.3 | 0.00 | 0.00 | 0.00 | 44 | 1021.5 |
| 20260508083149 | 46 | 207 | 0.0 | 3.5 | 0.00 | 0.00 | 0.00 | 45 | 1021.5 |
| 20260508082646 | 46 | 190 | 0.0 | 6.1 | 0.00 | 0.00 | 0.00 | 45 | 1021.6 |
| 20260508082143 | 46 | 215 | 0.9 | 6.1 | 0.00 | 0.00 | 0.00 | 45 | 1021.6 |
| 20260508081641 | 46 | 227 | 0.9 | 8.7 | 0.00 | 0.00 | 0.00 | 45 | 1021.5 |
| 20260508081344 | 46 | 208 | 0.0 | 8.7 | 0.00 | 0.00 | 0.00 | 45 | 1021.6 |
| 20260508080611 | 46 | 215 | 0.0 | 4.3 | 0.00 | 0.00 | 0.00 | 46 | 1021.7 |
| 20260508080059 | 46 | 205 | 0.0 | 4.3 | 0.00 | 0.00 | 0.00 | 46 | 1021.7 |
| 20260508075556 | 46 | 200 | 0.0 | 1.7 | 0.00 | 0.00 | 0.00 | 46 | 1021.7 |
| 20260508075032 | 46 | 212 | 0.0 | 2.6 | 0.00 | 0.00 | 0.00 | 46 | 1021.7 |
| 20260508074506 | 46 | 196 | 0.0 | 2.6 | 0.00 | 0.00 | 0.00 | 46 | 1021.8 |
| 20260508073940 | 46 | 210 | 0.0 | 1.7 | 0.00 | 0.00 | 0.00 | 46 | 1021.8 |
| 20260508073420 | 46 | 215 | 0.0 | 1.7 | 0.00 | 0.00 | 0.00 | 46 | 1021.8 |
| 20260508072917 | 46 | 194 | 0.0 | 2.6 | 0.00 | 0.00 | 0.00 | 46 | 1021.9 |
| 20260508072416 | 46 | 197 | 0.0 | 2.6 | 0.00 | 0.00 | 0.00 | 46 | 1021.9 |
| 20260508071850 | 46 | 223 | 0.0 | 1.7 | 0.00 | 0.00 | 0.00 | 46 | 1021.9 |
| 20260508071324 | 46 | 202 | 0.0 | 0.9 | 0.00 | 0.00 | 0.00 | 46 | 1022.0 |
| 20260508070758 | 46 | 196 | 0.0 | 7.0 | 0.00 | 0.00 | 0.00 | 46 | 1022.0 |
| 20260508070241 | 46 | 230 | 0.0 | 7.0 | 0.00 | 0.00 | 0.00 | 46 | 1022.0 |
| 20260508070015 | 46 | 188 | 0.0 | 2.6 | 0.00 | 0.00 | 0.00 | 46 | 1022.1 |
| 20260508065217 | 46 | 202 | 0.0 | 2.6 | 0.00 | 0.00 | 0.00 | 46 | 1022.1 |
| 20260508064944 | 46 | 198 | 0.0 | 4.3 | 0.00 | 0.00 | 0.00 | 46 | 1022.1 |
| 20260508064210 | 46 | 207 | 0.0 | 4.3 | 0.00 | 0.00 | 0.00 | 46 | 1022.1 |
| 20260508063940 | 46 | 215 | 0.0 | 0.9 | 0.00 | 0.00 | 0.00 | 47 | 1022.2 |
| 20260508063141 | 46 | 200 | 0.0 | 1.7 | 0.00 | 0.00 | 0.00 | 47 | 1022.2 |
| 20260508062624 | 46 | 213 | 0.0 | 1.7 | 0.00 | 0.00 | 0.00 | 46 | 1022.2 |
| 20260508062328 | 46 | 211 | 0.0 | 2.6 | 0.00 | 0.00 | 0.00 | 46 | 1022.4 |
| 20260508061529 | 46 | 221 | 0.0 | 2.6 | 0.00 | 0.00 | 0.00 | 46 | 1022.5 |
| 20260508061028 | 46 | 207 | 0.0 | 0.0 | 0.00 | 0.00 | 0.00 | 46 | 1022.5 |
| 20260508060459 | 47 | 202 | 0.0 | 0.0 | 0.00 | 0.00 | 0.00 | 46 | 1022.5 |
| 20260508055957 | 47 | 202 | 0.0 | 0.0 | 0.00 | 0.00 | 0.00 | 45 | 1022.5 |
| 20260508055448 | 47 | 205 | 0.0 | 0.0 | 0.00 | 0.00 | 0.00 | 44 | 1022.5 |
| 20260508054919 | 47 | 207 | 0.0 | 0.0 | 0.00 | 0.00 | 0.00 | 43 | 1022.6 |
| 20260508054418 | 48 | 219 | 0.0 | 0.9 | 0.00 | 0.00 | 0.00 | 43 | 1022.6 |
| 20260508053849 | 48 | 202 | 0.0 | 0.9 | 0.00 | 0.00 | 0.00 | 42 | 1022.6 |
| 20260508053324 | 48 | 220 | 0.0 | 0.0 | 0.00 | 0.00 | 0.00 | 42 | 1022.6 |
| 20260508052807 | 48 | 209 | 0.0 | 0.9 | 0.00 | 0.00 | 0.00 | 42 | 1022.6 |
| 20260508052310 | 48 | 215 | 0.0 | 0.9 | 0.00 | 0.00 | 0.00 | 42 | 1022.7 |
| 20260508051741 | 48 | 207 | 0.0 | 0.9 | 0.00 | 0.00 | 0.00 | 42 | 1022.7 |
| 20260508051240 | 48 | 206 | 0.0 | 0.0 | 0.00 | 0.00 | 0.00 | 42 | 1022.7 |
| 20260508050712 | 49 | 209 | 0.0 | 0.0 | 0.00 | 0.00 | 0.00 | 42 | 1022.7 |
| 20260508050143 | 49 | 225 | 0.0 | 0.0 | 0.00 | 0.00 | 0.00 | 40 | 1022.8 |
| 20260508045912 | 49 | 202 | 0.0 | 0.0 | 0.00 | 0.00 | 0.00 | 40 | 1022.7 |
| 20260508045132 | 49 | 200 | 0.0 | 0.0 | 0.00 | 0.00 | 0.00 | 39 | 1022.8 |
| 20260508044607 | 49 | 200 | 0.0 | 0.0 | 0.00 | 0.00 | 0.00 | 40 | 1022.8 |
| 20260508044059 | 49 | 200 | 0.0 | 0.0 | 0.00 | 0.00 | 0.00 | 40 | 1022.9 |
| 20260508043557 | 49 | 212 | 0.0 | 0.0 | 0.00 | 0.00 | 0.00 | 42 | 1022.9 |
| 20260508043029 | 49 | 212 | 0.0 | 0.0 | 0.00 | 0.00 | 0.00 | 42 | 1023.0 |
| 20260508042528 | 49 | 212 | 0.0 | 0.0 | 0.00 | 0.00 | 0.00 | 42 | 1022.9 |
| 20260508042023 | 49 | 212 | 0.0 | 0.0 | 0.00 | 0.00 | 0.00 | 41 | 1023.0 |
| 20260508041526 | 50 | 224 | 0.0 | 0.0 | 0.00 | 0.00 | 0.00 | 39 | 1023.0 |
| 20260508041251 | 50 | 224 | 0.0 | 0.0 | 0.00 | 0.00 | 0.00 | 39 | 1023.0 |
| 20260508040524 | 50 | 224 | 0.0 | 0.0 | 0.00 | 0.00 | 0.00 | 38 | 1023.0 |
| 20260508035955 | 51 | 224 | 0.0 | 0.0 | 0.00 | 0.00 | 0.00 | 38 | 1023.0 |
| 20260508035454 | 51 | 224 | 0.0 | 0.0 | 0.00 | 0.00 | 0.00 | 37 | 1023.0 |
| 20260508034937 | 51 | 224 | 0.0 | 0.0 | 0.00 | 0.00 | 0.00 | 35 | 1023.1 |
| 20260508034440 | 51 | 224 | 0.0 | 0.0 | 0.00 | 0.00 | 0.00 | 35 | 1023.2 |
| 20260508033912 | 51 | 224 | 0.0 | 0.0 | 0.00 | 0.00 | 0.00 | 35 | 1023.2 |
| 20260508033410 | 52 | 224 | 0.0 | 0.0 | 0.00 | 0.00 | 0.00 | 34 | 1023.3 |
| 20260508032841 | 52 | 224 | 0.0 | 0.0 | 0.00 | 0.00 | 0.00 | 34 | 1023.3 |
| 20260508032340 | 52 | 224 | 0.0 | 0.0 | 0.00 | 0.00 | 0.00 | 34 | 1023.2 |
| 20260508031820 | 52 | 224 | 0.0 | 0.0 | 0.00 | 0.00 | 0.00 | 33 | 1023.3 |
| 20260508031508 | 52 | 224 | 0.0 | 0.0 | 0.00 | 0.00 | 0.00 | 33 | 1023.2 |
| 20260508030736 | 53 | 224 | 0.0 | 0.0 | 0.00 | 0.00 | 0.00 | 33 | 1023.3 |
| 20260508030207 | 53 | 224 | 0.0 | 0.0 | 0.00 | 0.00 | 0.00 | 32 | 1023.3 |
| 20260508025704 | 53 | 224 | 0.0 | 0.0 | 0.00 | 0.00 | 0.00 | 32 | 1023.4 |
| 20260508025203 | 53 | 224 | 0.0 | 0.0 | 0.00 | 0.00 | 0.00 | 32 | 1023.3 |
| 20260508024642 | 53 | 224 | 0.0 | 0.0 | 0.00 | 0.00 | 0.00 | 32 | 1023.4 |
| 20260508024115 | 53 | 224 | 0.0 | 0.0 | 0.00 | 0.00 | 0.00 | 32 | 1023.3 |
| 20260508023619 | 53 | 224 | 0.0 | 0.0 | 0.00 | 0.00 | 0.00 | 32 | 1023.3 |
| 20260508023320 | 54 | 224 | 0.0 | 0.0 | 0.00 | 0.00 | 0.00 | 32 | 1023.2 |
| 20260508022549 | 54 | 224 | 0.0 | 0.0 | 0.00 | 0.00 | 0.00 | 32 | 1023.2 |
| 20260508022022 | 54 | 224 | 0.0 | 0.0 | 0.00 | 0.00 | 0.00 | 32 | 1023.2 |
| 20260508021501 | 54 | 224 | 0.0 | 0.0 | 0.00 | 0.00 | 0.00 | 32 | 1023.2 |
| 20260508021004 | 54 | 224 | 0.0 | 0.0 | 0.00 | 0.00 | 0.00 | 32 | 1023.1 |
| 20260508020706 | 54 | 224 | 0.0 | 0.0 | 0.00 | 0.00 | 0.00 | 32 | 1023.0 |
| 20260508015934 | 54 | 224 | 0.0 | 0.0 | 0.00 | 0.00 | 0.00 | 32 | 1023.0 |
| 20260508015406 | 54 | 224 | 0.0 | 0.0 | 0.00 | 0.00 | 0.00 | 32 | 1022.9 |
| 20260508015135 | 55 | 224 | 0.0 | 0.0 | 0.00 | 0.00 | 0.00 | 32 | 1022.9 |
| 20260508014408 | 55 | 224 | 0.0 | 0.0 | 0.00 | 0.00 | 0.00 | 31 | 1022.8 |
| 20260508013828 | 55 | 224 | 0.0 | 0.0 | 0.00 | 0.00 | 0.00 | 31 | 1022.8 |
| 20260508013300 | 55 | 224 | 0.0 | 0.0 | 0.00 | 0.00 | 0.00 | 31 | 1022.7 |
| 20260508013017 | 55 | 224 | 0.0 | 0.0 | 0.00 | 0.00 | 0.00 | 30 | 1022.6 |
| 20260508012248 | 56 | 224 | 0.0 | 0.0 | 0.00 | 0.00 | 0.00 | 30 | 1022.7 |
| 20260508011745 | 56 | 224 | 0.0 | 0.0 | 0.00 | 0.00 | 0.00 | 30 | 1022.6 |
| 20260508011237 | 56 | 224 | 0.0 | 0.0 | 0.00 | 0.00 | 0.00 | 29 | 1022.6 |
| 20260508010947 | 56 | 225 | 0.0 | 0.0 | 0.00 | 0.00 | 0.00 | 29 | 1022.6 |
| 20260508010214 | 56 | 224 | 0.0 | 0.0 | 0.00 | 0.00 | 0.00 | 30 | 1022.6 |
| 20260508005645 | 57 | 224 | 0.0 | 0.0 | 0.00 | 0.00 | 0.00 | 29 | 1022.6 |
| 20260508005144 | 57 | 224 | 0.0 | 0.0 | 0.00 | 0.00 | 0.00 | 29 | 1022.6 |
| 20260508004617 | 57 | 224 | 0.0 | 0.0 | 0.00 | 0.00 | 0.00 | 29 | 1022.6 |
| 20260508004101 | 57 | 224 | 0.0 | 0.0 | 0.00 | 0.00 | 0.00 | 29 | 1022.6 |
| 20260508003835 | 58 | 224 | 0.0 | 0.0 | 0.00 | 0.00 | 0.00 | 28 | 1022.6 |
| 20260508003038 | 58 | 224 | 0.0 | 0.0 | 0.00 | 0.00 | 0.00 | 28 | 1022.5 |
| 20260508002512 | 58 | 224 | 0.0 | 0.0 | 0.00 | 0.00 | 0.00 | 27 | 1022.6 |
| 20260508001943 | 58 | 224 | 0.0 | 0.0 | 0.00 | 0.00 | 0.00 | 27 | 1022.6 |
| 20260508001715 | 58 | 246 | 0.0 | 0.0 | 0.00 | 0.00 | 0.00 | 28 | 1022.6 |
| 20260508000921 | 59 | 240 | 0.0 | 0.0 | 0.00 | 0.00 | 0.00 | 27 | 1022.6 |
| 20260508000339 | 59 | 240 | 0.0 | 0.0 | 0.00 | 0.00 | 0.00 | 26 | 1022.5 |
| 20260507235840 | 59 | 240 | 0.0 | 0.0 | 0.00 | 0.00 | 0.00 | 27 | 1022.5 |
| 20260507235545 | 59 | 242 | 0.0 | 0.0 | 0.00 | 0.00 | 0.00 | 27 | 1022.6 |
| 20260507234810 | 59 | 242 | 0.0 | 0.0 | 0.00 | 0.00 | 0.00 | 26 | 1022.7 |
| 20260507234308 | 60 | 242 | 0.0 | 0.0 | 0.00 | 0.00 | 0.00 | 27 | 1022.7 |
| 20260507233742 | 60 | 243 | 0.0 | 0.0 | 0.00 | 0.00 | 0.00 | 26 | 1022.8 |
| 20260507233203 | 60 | 242 | 0.0 | 0.0 | 0.00 | 0.00 | 0.00 | 25 | 1022.8 |
| 20260507232638 | 60 | 257 | 0.0 | 0.0 | 0.00 | 0.00 | 0.00 | 26 | 1022.8 |
| 20260507232346 | 61 | 238 | 0.0 | 0.0 | 0.00 | 0.00 | 0.00 | 24 | 1022.9 |
| 20260507231551 | 61 | 188 | 0.0 | 0.0 | 0.00 | 0.00 | 0.00 | 23 | 1022.9 |
| 20260507231258 | 62 | 251 | 0.0 | 0.0 | 0.00 | 0.00 | 0.00 | 23 | 1022.9 |
| 20260507230528 | 62 | 243 | 0.0 | 0.0 | 0.00 | 0.00 | 0.00 | 23 | 1022.9 |
| 20260507230013 | 63 | 304 | 0.0 | 0.0 | 0.00 | 0.00 | 0.00 | 22 | 1023.0 |
| 20260507225515 | 63 | 346 | 0.0 | 0.0 | 0.00 | 0.00 | 0.00 | 22 | 1023.0 |
| 20260507224950 | 63 | 161 | 0.0 | 0.0 | 0.00 | 0.00 | 0.00 | 23 | 1023.0 |
| 20260507224436 | 63 | 227 | 0.0 | 0.0 | 0.00 | 0.00 | 0.00 | 22 | 1023.0 |
| 20260507223934 | 63 | 243 | 0.0 | 0.0 | 0.00 | 0.00 | 0.00 | 22 | 1023.2 |
| 20260507223704 | 63 | 327 | 0.0 | 1.7 | 0.00 | 0.00 | 0.00 | 22 | 1023.2 |
| 20260507222931 | 63 | 257 | 0.0 | 1.7 | 0.00 | 0.00 | 0.00 | 22 | 1023.2 |
| 20260507222434 | 63 | 214 | 0.0 | 2.6 | 0.00 | 0.00 | 0.00 | 21 | 1023.1 |
| 20260507221909 | 63 | 194 | 0.0 | 2.6 | 0.00 | 0.00 | 0.00 | 21 | 1023.1 |
| 20260507221356 | 63 | 254 | 0.0 | 0.9 | 0.00 | 0.00 | 0.00 | 21 | 1023.2 |
| 20260507220856 | 64 | 271 | 0.0 | 5.2 | 0.00 | 0.00 | 0.00 | 22 | 1023.2 |
| 20260507220345 | 63 | 284 | 0.0 | 5.2 | 0.00 | 0.00 | 0.00 | 22 | 1023.1 |
| 20260507215842 | 64 | 336 | 0.0 | 3.5 | 0.00 | 0.00 | 0.00 | 22 | 1023.2 |
| 20260507215332 | 64 | 307 | 0.0 | 3.5 | 0.00 | 0.00 | 0.00 | 21 | 1023.3 |
| 20260507214833 | 64 | 245 | 0.0 | 0.9 | 0.00 | 0.00 | 0.00 | 21 | 1023.3 |
| 20260507214333 | 64 | 187 | 0.0 | 0.9 | 0.00 | 0.00 | 0.00 | 22 | 1023.3 |
| 20260507213831 | 63 | 350 | 0.0 | 3.5 | 0.00 | 0.00 | 0.00 | 22 | 1023.4 |
| 20260507213331 | 63 | 243 | 0.0 | 3.5 | 0.00 | 0.00 | 0.00 | 22 | 1023.4 |
| 20260507212827 | 63 | 327 | 0.0 | 0.9 | 0.00 | 0.00 | 0.00 | 22 | 1023.4 |
| 20260507212324 | 62 | 268 | 0.0 | 0.9 | 0.00 | 0.00 | 0.00 | 22 | 1023.4 |
| 20260507211824 | 63 | 22 | 0.0 | 0.9 | 0.00 | 0.00 | 0.00 | 24 | 1023.5 |
| 20260507211310 | 62 | 252 | 0.0 | 0.9 | 0.00 | 0.00 | 0.00 | 23 | 1023.5 |
| 20260507210812 | 63 | 278 | 0.0 | 0.0 | 0.00 | 0.00 | 0.00 | 22 | 1023.6 |
| 20260507210747 | 63 | 255 | 0.0 | 0.9 | 0.00 | 0.00 | 0.00 | 21 | 1023.6 |
| 20260507205722 | 63 | 263 | 0.0 | 1.7 | 0.00 | 0.00 | 0.00 | 21 | 1023.7 |
| 20260507205452 | 64 | 263 | 0.0 | 1.7 | 0.00 | 0.00 | 0.00 | 21 | 1023.6 |
| 20260507204659 | 63 | 194 | 0.0 | 0.0 | 0.00 | 0.00 | 0.00 | 25 | 1023.8 |
| 20260507204139 | 62 | 246 | 0.0 | 0.9 | 0.00 | 0.00 | 0.00 | 24 | 1023.8 |
| 20260507203619 | 63 | 5 | 0.0 | 0.9 | 0.00 | 0.00 | 0.00 | 23 | 1024.0 |
| 20260507203118 | 63 | 230 | 0.0 | 0.9 | 0.00 | 0.00 | 0.00 | 21 | 1023.9 |
| 20260507202613 | 62 | 248 | 0.0 | 0.9 | 0.00 | 0.00 | 0.00 | 22 | 1024.0 |
| 20260507202319 | 61 | 271 | 0.0 | 0.9 | 0.00 | 0.00 | 0.00 | 25 | 1024.0 |
| 20260507201535 | 60 | 350 | 0.0 | 1.7 | 0.00 | 0.00 | 0.00 | 25 | 1024.0 |
| 20260507201013 | 60 | 167 | 0.0 | 2.6 | 0.00 | 0.00 | 0.00 | 22 | 1024.1 |
| 20260507200509 | 61 | 241 | 0.0 | 4.3 | 0.00 | 0.00 | 0.00 | 21 | 1024.2 |
| 20260507200009 | 61 | 236 | 0.0 | 4.3 | 0.00 | 0.00 | 0.00 | 22 | 1024.3 |
| 20260507195458 | 62 | 241 | 0.0 | 0.0 | 0.00 | 0.00 | 0.00 | 23 | 1024.2 |
| 20260507194957 | 62 | 338 | 0.0 | 0.0 | 0.00 | 0.00 | 0.00 | 25 | 1024.3 |
| 20260507194454 | 62 | 355 | 0.0 | 0.0 | 0.00 | 0.00 | 0.00 | 23 | 1024.4 |
| 20260507193932 | 62 | 266 | 0.0 | 0.0 | 0.00 | 0.00 | 0.00 | 22 | 1024.5 |
| 20260507193359 | 63 | 48 | 0.0 | 0.0 | 0.00 | 0.00 | 0.00 | 22 | 1024.5 |
| 20260507192831 | 62 | 208 | 0.0 | 0.0 | 0.00 | 0.00 | 0.00 | 24 | 1024.4 |
| 20260507192323 | 62 | 211 | 0.0 | 0.0 | 0.00 | 0.00 | 0.00 | 22 | 1024.5 |
| 20260507191757 | 62 | 72 | 0.0 | 0.0 | 0.00 | 0.00 | 0.00 | 23 | 1024.5 |
| 20260507191505 | 62 | 250 | 0.0 | 2.6 | 0.00 | 0.00 | 0.00 | 26 | 1024.6 |
| 20260507190935 | 62 | 234 | 0.0 | 2.6 | 0.00 | 0.00 | 0.00 | 22 | 1024.8 |
| 20260507190139 | 63 | 215 | 0.0 | 0.9 | 0.00 | 0.00 | 0.00 | 23 | 1024.8 |
| 20260507185618 | 62 | 200 | 0.0 | 0.9 | 0.00 | 0.00 | 0.00 | 26 | 1024.8 |
| 20260507185035 | 61 | 198 | 0.0 | 0.0 | 0.00 | 0.00 | 0.00 | 26 | 1024.8 |
| 20260507184510 | 60 | 279 | 0.0 | 0.0 | 0.00 | 0.00 | 0.00 | 26 | 1024.8 |
| 20260507183940 | 59 | 279 | 0.0 | 0.9 | 0.00 | 0.00 | 0.00 | 25 | 1024.9 |
| 20260507183711 | 60 | 274 | 0.0 | 0.9 | 0.00 | 0.00 | 0.00 | 25 | 1025.0 |
| 20260507182919 | 60 | 261 | 0.0 | 0.0 | 0.00 | 0.00 | 0.00 | 24 | 1025.0 |
| 20260507182415 | 60 | 276 | 0.0 | 0.0 | 0.00 | 0.00 | 0.00 | 26 | 1025.0 |
| 20260507181920 | 60 | 215 | 0.0 | 0.0 | 0.00 | 0.00 | 0.00 | 29 | 1024.9 |
| 20260507181624 | 60 | 308 | 0.0 | 0.0 | 0.00 | 0.00 | 0.00 | 26 | 1025.1 |
| 20260507180832 | 59 | 298 | 0.0 | 0.0 | 0.00 | 0.00 | 0.00 | 26 | 1025.1 |
| 20260507180254 | 59 | 24 | 0.0 | 0.0 | 0.00 | 0.00 | 0.00 | 28 | 1025.0 |
| 20260507175753 | 60 | 273 | 0.0 | 0.9 | 0.00 | 0.00 | 0.00 | 27 | 1025.1 |
| 20260507175240 | 59 | 304 | 0.0 | 0.9 | 0.00 | 0.00 | 0.00 | 25 | 1025.1 |
| 20260507174739 | 59 | 243 | 0.0 | 0.9 | 0.00 | 0.00 | 0.00 | 28 | 1025.1 |
| 20260507174210 | 59 | 355 | 0.0 | 0.0 | 0.00 | 0.00 | 0.00 | 29 | 1025.1 |
| 20260507173709 | 59 | 257 | 0.0 | 0.9 | 0.00 | 0.00 | 0.00 | 28 | 1025.3 |
| 20260507173143 | 58 | 278 | 0.0 | 0.9 | 0.00 | 0.00 | 0.00 | 26 | 1025.2 |
| 20260507172618 | 58 | 196 | 0.0 | 4.3 | 0.00 | 0.00 | 0.00 | 27 | 1025.3 |
| 20260507172112 | 58 | 216 | 0.0 | 4.3 | 0.00 | 0.00 | 0.00 | 28 | 1025.3 |
| 20260507171611 | 58 | 272 | 0.0 | 0.0 | 0.00 | 0.00 | 0.00 | 27 | 1025.5 |
| 20260507171111 | 58 | 351 | 0.0 | 0.9 | 0.00 | 0.00 | 0.00 | 27 | 1025.5 |
| 20260507170615 | 57 | 303 | 0.0 | 0.9 | 0.00 | 0.00 | 0.00 | 28 | 1025.6 |
| 20260507170046 | 57 | 243 | 0.0 | 1.7 | 0.00 | 0.00 | 0.00 | 27 | 1025.6 |
| 20260507165547 | 56 | 242 | 0.0 | 1.7 | 0.00 | 0.00 | 0.00 | 25 | 1025.6 |
| 20260507165317 | 56 | 277 | 0.0 | 1.7 | 0.00 | 0.00 | 0.00 | 28 | 1025.6 |
| 20260507164547 | 55 | 323 | 0.0 | 0.9 | 0.00 | 0.00 | 0.00 | 29 | 1025.7 |
| 20260507164021 | 55 | 348 | 0.0 | 0.9 | 0.00 | 0.00 | 0.00 | 31 | 1025.8 |
| 20260507163455 | 55 | 226 | 0.0 | 0.9 | 0.00 | 0.00 | 0.00 | 31 | 1025.7 |
| 20260507162928 | 55 | 334 | 0.0 | 0.0 | 0.00 | 0.00 | 0.00 | 32 | 1025.8 |
| 20260507162427 | 55 | 257 | 0.0 | 0.0 | 0.00 | 0.00 | 0.00 | 33 | 1025.8 |
| 20260507161910 | 54 | 288 | 0.0 | 0.0 | 0.00 | 0.00 | 0.00 | 33 | 1025.8 |
| 20260507161412 | 54 | 348 | 0.0 | 0.0 | 0.00 | 0.00 | 0.00 | 33 | 1025.9 |
| 20260507160844 | 54 | 310 | 0.0 | 0.0 | 0.00 | 0.00 | 0.00 | 33 | 1025.9 |
| 20260507160613 | 54 | 309 | 0.0 | 0.0 | 0.00 | 0.00 | 0.00 | 33 | 1026.0 |
| 20260507155814 | 53 | 309 | 0.0 | 0.0 | 0.00 | 0.00 | 0.00 | 35 | 1026.0 |
| 20260507155313 | 53 | 340 | 0.0 | 0.0 | 0.00 | 0.00 | 0.00 | 35 | 1026.0 |
| 20260507154756 | 54 | 261 | 0.0 | 0.0 | 0.00 | 0.00 | 0.00 | 32 | 1025.9 |
| 20260507154256 | 53 | 224 | 0.0 | 0.0 | 0.00 | 0.00 | 0.00 | 33 | 1025.9 |
| 20260507153757 | 51 | 224 | 0.0 | 0.0 | 0.00 | 0.00 | 0.00 | 36 | 1026.0 |
| 20260507153523 | 51 | 44 | 0.0 | 0.9 | 0.00 | 0.00 | 0.00 | 35 | 1026.0 |
| 20260507152751 | 51 | 222 | 0.0 | 0.9 | 0.00 | 0.00 | 0.00 | 36 | 1026.1 |
| 20260507152456 | 51 | 230 | 0.0 | 1.7 | 0.00 | 0.00 | 0.00 | 37 | 1026.1 |
| 20260507151928 | 51 | 230 | 0.0 | 1.7 | 0.00 | 0.00 | 0.00 | 37 | 1026.1 |
| 20260507151149 | 51 | 234 | 0.0 | 0.0 | 0.00 | 0.00 | 0.00 | 37 | 1026.2 |
| 20260507150623 | 50 | 234 | 0.0 | 0.0 | 0.00 | 0.00 | 0.00 | 40 | 1026.1 |
| 20260507150123 | 49 | 234 | 0.0 | 0.0 | 0.00 | 0.00 | 0.00 | 38 | 1026.1 |
| 20260507145856 | 49 | 234 | 0.0 | 0.0 | 0.00 | 0.00 | 0.00 | 39 | 1026.1 |
| 20260507145124 | 48 | 234 | 0.0 | 0.0 | 0.00 | 0.00 | 0.00 | 41 | 1026.1 |
| 20260507144622 | 48 | 234 | 0.0 | 0.0 | 0.00 | 0.00 | 0.00 | 42 | 1026.2 |
| 20260507144119 | 47 | 234 | 0.0 | 0.0 | 0.00 | 0.00 | 0.00 | 43 | 1026.2 |
| 20260507143851 | 47 | 233 | 0.0 | 0.0 | 0.00 | 0.00 | 0.00 | 43 | 1026.2 |